Weather History for Provo, UT

Change the Weather History Date:

Tuesday, September 18, 2012

  Actual Average Record
Temperature  
Mean Temperature 60 °F -  
Max Temperature 77 °F 72 °F 89 °F (2014)
Min Temperature 44 °F 45 °F 33 °F (2003)
Degree Days  
Heating Degree Days 4    
Growing Degree Days 10 (Base 50)    
Moisture  
Dew Point 38 °F    
Average Humidity 53    
Maximum Humidity 67    
Minimum Humidity 18    
Precipitation  
Precipitation 0.00 in - - ()
Sea Level Pressure  
Sea Level Pressure 30.23 in    
Wind  
Wind Speed 3 mph (ESE)    
Max Wind Speed 7 mph    
Max Gust Speed -    
Visibility 9 miles    
Events      
Averages and records for this station are not official NWS values.
T = Trace of Precipitation, MM = Missing Value Source: NWS Daily Summary

Daily Weather History Graph

Daily Weather History Graph

Search for Another Location

Airport:

Trip Planner

Search our weather history database for the weather conditions in past years. The results will help you decide how hot, cold, wet, or windy it might be!

Date:

Astronomy

Sep. 18, 2012 Rise Set
Actual Time 7:11 AM MDT 7:29 PM MDT
Civil Twilight 6:43 AM MDT 7:56 PM MDT
Nautical Twilight 6:12 AM MDT 8:28 PM MDT
Astronomical Twilight 5:39 AM MDT 9:01 PM MDT
Moon 10:15 AM MDT (9/18) 8:55 PM MDT (9/18)
Length of Visible Light 13h 12m
Length of Day
12h 18m
Waxing Crescent, 9% of the Moon is Illuminated
Sep 18
Waxing Crescent
Sep 22
First Quarter
Sep 29
Full
Oct 8
Last Quarter
Oct 15
New

Hourly Weather History & Observations

Time (MDT) Temp. Windchill Dew Point Humidity Pressure Visibility Wind Dir Wind Speed Gust Speed Precip Events Conditions
12:15 AM 55.4 °F - 37.4 °F 51% 30.21 in 10.0 mi SE 6.9 mph - N/A   Clear
12:35 AM 53.6 °F - 39.2 °F 58% 30.21 in 10.0 mi SE 3.5 mph - N/A   Clear
12:55 AM 53.6 °F - 39.2 °F 58% 30.22 in 10.0 mi Calm Calm - N/A   Clear
1:35 AM 53.6 °F - 37.4 °F 54% 30.22 in 10.0 mi ESE 3.5 mph - N/A   Clear
1:55 AM 53.6 °F - 39.2 °F 58% 30.23 in 10.0 mi Calm Calm - N/A   Clear
2:15 AM 51.8 °F - 37.4 °F 58% 30.23 in 10.0 mi Calm Calm - N/A   Clear
2:55 AM 50.0 °F - 35.6 °F 58% 30.23 in 10.0 mi Calm Calm - N/A   Clear
3:15 AM 50.0 °F - 33.8 °F 54% 30.23 in 10.0 mi SSE 3.5 mph - N/A   Clear
3:35 AM 48.2 °F - 35.6 °F 62% 30.23 in 10.0 mi Calm Calm - N/A   Clear
4:35 AM 48.2 °F - 35.6 °F 62% 30.24 in 10.0 mi SSE 5.8 mph - N/A   Clear
5:15 AM 46.4 °F 45.2 °F 33.8 °F 62% 30.24 in 10.0 mi East 3.5 mph - N/A   Clear
5:35 AM 48.2 °F - 33.8 °F 58% 30.25 in 10.0 mi East 3.5 mph - N/A   Clear
5:55 AM 46.4 °F 45.2 °F 33.8 °F 62% 30.25 in 10.0 mi East 3.5 mph - N/A   Clear
6:15 AM 48.2 °F - 33.8 °F 58% 30.25 in 10.0 mi SE 5.8 mph - N/A   Clear
6:35 AM 46.4 °F 44.3 °F 32.0 °F 57% 30.26 in 10.0 mi ESE 4.6 mph - N/A   Clear
6:50 AM 44.6 °F 43.1 °F 32.0 °F 61% 30.26 in 10.0 mi East 3.5 mph - N/A   Clear
7:53 AM 48.2 °F - 35.6 °F 62% 30.26 in 10.0 mi ESE 4.6 mph - N/A   Clear
8:49 AM 53.6 °F - 35.6 °F 51% 30.30 in 7.0 mi ESE 4.6 mph - N/A   Smoke
9:50 AM 59.0 °F - 33.8 °F 39% 30.31 in 7.0 mi Variable 5.8 mph - N/A   Smoke
11:50 AM 66.2 °F - 41.0 °F 40% 30.29 in 7.0 mi Variable 5.8 mph - N/A   Smoke
2:50 PM 75.2 °F - 37.4 °F 25% 30.23 in 7.0 mi Variable 5.8 mph - N/A   Smoke
3:45 PM 77.0 °F - 30.2 °F 18% 30.21 in 7.0 mi Variable 4.6 mph - N/A   Smoke
5:47 PM 77.0 °F - 41.0 °F 28% 30.18 in 7.0 mi Variable 4.6 mph - N/A   Smoke
6:47 PM 73.4 °F - 42.8 °F 33% 30.18 in - Variable 3.5 mph - N/A   Smoke
7:47 PM 68.0 °F - 46.4 °F 46% 30.17 in 7.0 mi Calm Calm - N/A   Smoke
8:54 PM 60.8 °F - 44.6 °F 55% 30.19 in 7.0 mi Calm Calm - N/A   Smoke
9:15 PM 60.8 °F - 44.6 °F 55% 30.19 in 10.0 mi ESE 4.6 mph - N/A   Clear
9:55 PM 60.8 °F - 44.6 °F 55% 30.19 in 8.0 mi SE 6.9 mph - N/A   Clear
10:15 PM 57.2 °F - 41.0 °F 55% 30.20 in 10.0 mi Calm Calm - N/A   Clear
10:55 PM 57.2 °F - 41.0 °F 55% 30.20 in 10.0 mi Calm Calm - N/A   Clear
11:15 PM 55.4 °F - 42.8 °F 63% 30.20 in 6.0 mi Calm Calm - N/A   Clear
11:35 PM 55.4 °F - 41.0 °F 58% 30.21 in 10.0 mi Calm Calm - N/A   Clear
11:55 PM 53.6 °F - 42.8 °F 67% 30.21 in 10.0 mi SE 5.8 mph - N/A   Clear